This is the latest recevied weather packets stored in our database for station/object JR5YHL-13. If no packets are shown the sender has not sent any weather packets the latest 1 day(s).
| Time | Temp. | Humidity | Pressure | Rain* | Wind** | Luminosity | Snow |
|---|---|---|---|---|---|---|---|
| 1777975350 | 18.89° C | 44% | 1020.1 hPa | 0 mm | 0 m/s | - | - |
| 1777974753 | 18.89° C | 41% | 1020 hPa | 0 mm | 0 m/s | - | - |
| 1777974155 | 19.44° C | 38% | 1019.9 hPa | 0 mm | 0 m/s | - | - |
| 1777973557 | 20° C | 36% | 1019.7 hPa | 0 mm | 0 m/s | - | - |
| 1777972960 | 20° C | 31% | 1019.6 hPa | 0 mm | 0 m/s | - | - |
| 1777972362 | 20° C | 30% | 1019.5 hPa | 0 mm | 0 m/s | - | - |
| 1777971765 | 20.56° C | 29% | 1019.4 hPa | 0 mm | 0 m/s | - | - |
| 1777971167 | 20° C | 29% | 1019.2 hPa | 0 mm | 0.45 m/s, 135° | - | - |
| 1777970570 | 20.56° C | 29% | 1019.1 hPa | 0 mm | 0 m/s | - | - |
| 1777969972 | 20.56° C | 29% | 1019.2 hPa | 0 mm | 0.45 m/s, 45° | - | - |
| 1777969374 | 21.11° C | 28% | 1019.1 hPa | 0 mm | 0.89 m/s, 135° | - | - |
| 1777968777 | 21.11° C | 29% | 1019 hPa | 0 mm | 0.89 m/s, 135° | - | - |
| 1777968179 | 21.67° C | 28% | 1018.9 hPa | 0 mm | 0.45 m/s, 180° | - | - |
| 1777967581 | 21.67° C | 30% | 1018.8 hPa | 0 mm | 0.45 m/s, 180° | - | - |
| 1777966983 | 21.67° C | 29% | 1018.5 hPa | 0 mm | 1.34 m/s, 135° | - | - |
| 1777966386 | 22.22° C | 30% | 1018.5 hPa | 0 mm | 0.89 m/s, 90° | - | - |
| 1777965788 | 21.67° C | 30% | 1018.5 hPa | 0 mm | 1.79 m/s, 90° | - | - |
| 1777965190 | 22.22° C | 29% | 1018.6 hPa | 0 mm | 0.45 m/s, 135° | - | - |
| 1777964593 | 22.22° C | 29% | 1018.5 hPa | 0 mm | 1.79 m/s, 270° | - | - |
| 1777963995 | 21.67° C | 27% | 1018.4 hPa | 0 mm | 1.79 m/s, 113° | - | - |
| 1777963397 | 22.22° C | 30% | 1018.5 hPa | 0 mm | 0.89 m/s, 90° | - | - |
| 1777962800 | 22.78° C | 29% | 1018.3 hPa | 0 mm | 2.24 m/s, 90° | - | - |
* Rain latest hour (hover to see other rain measurements)
** Current wind speed in m/s (hover to see current wind gust speed)